Location: Ottawa
(45.4170°N, 75.7000°W)
Time: 02:21:44
(UTC-04:00)

Envisat - Visible Passes

Search period start: 26 April 2019 00:00
Search period end: 06 May 2019 00:00
Orbit: 764 x 766 km, 98.2° (Epoch: 25 April)

Date Brightness Start Highest point End Pass type
(mag) Time Alt. Az. Time Alt. Az. Time Alt. Az.
27 Apr 5.7 20:45:30 10° SW 20:49:08 20° W 20:52:47 10° NW visible
29 Apr 6.1 21:13:33 10° WSW 21:15:00 11° W 21:16:26 10° WNW visible
02 May 5.9 21:00:56 10° WSW 21:03:37 14° W 21:06:18 10° NW visible
05 May 5.7 20:48:50 10° SW 20:52:15 18° W 20:55:41 10° NW visible
